Date String (YYYY-MM-DD hh:mm:ss) UTC,Instrument flags,Ambient pressure (hPa),Sample flow (lpm),Bypass flow (lpm),Sample temperature (°C),Ambient temperature (°C),ASC tube jacket temperature (°C),LED temperature (°C),Box temperature (°C),Sample RH (%),Span deviation,Mass concentration (μg/m³),Mass concentration (μg/m³),Mass concentration (μg/m³)
DateTimeUTC,F1_M11,P_M11,Q1_M11,Q2_M11,T1_M11,T2_M11,T3_M11,T4_M11,T5_M11,U1_M11,ZSPAN_M11,X2_M11,X0_M11,X1_M11
2022-05-30 08:00:00,,0812.3,5.00,0.00,28.5,27.3,00.0,37.5,30.3,20.0,0000.0,0000.91,0002.23,0000.47
2022-05-30 08:01:00,,0812.2,5.00,0.00,28.5,27.3,00.0,37.5,30.3,20.0,0000.0,0000.90,0002.27,0000.45
2022-05-30 08:02:00,,0812.2,5.01,0.00,28.5,27.3,00.0,37.5,30.3,19.9,0000.0,0000.88,0002.24,0000.43
2022-05-30 08:03:00,,0812.2,4.99,0.00,28.5,27.3,00.0,37.5,30.3,20.4,0000.0,0000.88,0002.25,0000.43
2022-05-30 08:04:00,,0812.3,5.00,0.00,28.5,27.3,00.0,37.5,30.3,20.4,0000.0,0000.84,0002.20,0000.41
2022-05-30 08:05:00,,0812.3,5.00,0.00,28.4,27.3,00.0,37.5,30.3,20.1,0000.0,0000.79,0002.13,0000.38
2022-05-30 08:06:00,,0812.3,5.00,0.00,28.4,27.3,00.0,37.5,30.3,19.6,0000.0,0000.74,0002.00,0000.36
2022-05-30 08:07:00,,0812.4,5.01,0.00,28.4,27.3,00.0,37.5,30.3,19.5,0000.0,0000.73,0001.72,0000.34
2022-05-30 08:08:00,,0812.4,5.00,0.00,28.4,27.3,00.0,37.5,30.3,19.7,0000.0,0000.72,0001.66,0000.34
2022-05-30 08:09:00,,0812.5,5.00,0.00,28.4,27.3,00.0,37.5,30.2,20.2,0000.0,0000.74,0001.64,0000.34
2022-05-30 08:10:00,,0812.4,5.00,0.00,28.4,27.3,00.0,37.4,30.2,20.4,0000.0,0000.74,0001.61,0000.34
2022-05-30 08:11:00,,0812.4,5.00,0.00,28.4,27.3,00.0,37.4,30.2,20.2,0000.0,0000.74,0001.67,0000.34
2022-05-30 08:12:00,,0812.5,5.00,0.00,28.4,27.3,00.0,37.4,30.2,20.1,0000.0,0000.70,0001.54,0000.33
2022-05-30 08:13:00,,0812.5,5.00,0.00,28.4,27.3,00.0,37.4,30.2,19.7,0000.0,0000.70,0001.53,0000.33
2022-05-30 08:14:00,,0812.4,4.99,0.00,28.4,27.2,00.0,37.4,30.2,19.7,0000.0,0000.66,0001.43,0000.32
2022-05-30 08:15:00,,0812.5,5.00,0.00,28.4,27.2,00.0,37.4,30.2,20.1,0000.0,0000.69,0001.48,0000.31
2022-05-30 08:16:00,,0812.5,5.00,0.00,28.3,27.2,00.0,37.4,30.2,20.2,0000.0,0000.70,0001.51,0000.31
2022-05-30 08:17:00,,0812.4,5.01,0.00,28.3,27.2,00.0,37.4,30.1,20.1,0000.0,0000.72,0001.54,0000.31
2022-05-30 08:18:00,,0812.4,5.00,0.00,28.3,27.2,00.0,37.4,30.1,20.2,0000.0,0000.66,0001.36,0000.30
2022-05-30 08:19:00,,0812.4,4.99,0.00,28.3,27.2,00.0,37.4,30.1,20.3,0000.0,0000.65,0001.31,0000.31
2022-05-30 08:20:00,,0812.3,5.00,0.00,28.3,27.1,00.0,37.4,30.1,20.2,0000.0,0000.60,0001.20,0000.30
2022-05-30 08:21:00,,0812.3,5.01,0.00,28.3,27.2,00.0,37.3,30.2,20.1,0000.0,0000.58,0001.11,0000.29
2022-05-30 08:22:00,,0812.4,5.00,0.00,28.3,27.2,00.0,37.3,30.2,20.0,0000.0,0000.56,0001.02,0000.29
2022-05-30 08:23:00,,0812.4,5.00,0.00,28.3,27.2,00.0,37.3,30.2,19.9,0000.0,0000.58,0001.05,0000.28
2022-05-30 08:24:00,,0812.4,5.00,0.00,28.3,27.2,00.0,37.3,30.1,19.6,0000.0,0000.56,0001.03,0000.28
2022-05-30 08:25:00,,0812.3,5.00,0.00,28.3,27.2,00.0,37.3,30.1,19.7,0000.0,0000.53,0000.97,0000.27
2022-05-30 08:26:00,,0812.2,5.00,0.00,28.3,27.2,00.0,37.3,30.1,19.7,0000.0,0000.50,0000.88,0000.26
2022-05-30 08:27:00,,0812.2,4.98,0.00,28.3,27.2,00.0,37.3,30.1,19.3,0000.0,0000.48,0000.85,0000.26
2022-05-30 08:28:00,,0812.1,5.00,0.00,28.3,27.2,00.0,37.3,30.2,19.2,0000.0,0000.50,0000.97,0000.26
2022-05-30 08:29:00,,0812.1,5.00,0.00,28.3,27.2,00.0,37.3,30.2,18.9,0000.0,0000.48,0000.96,0000.26
2022-05-30 08:30:00,,0812.1,5.00,0.00,28.3,27.2,00.0,37.3,30.2,18.4,0000.0,0000.48,0000.97,0000.25
2022-05-30 08:31:00,,0812.1,5.00,0.00,28.3,27.2,00.0,37.3,30.2,18.3,0000.0,0000.48,0001.00,0000.23
2022-05-30 08:32:00,,0812.0,5.00,0.00,28.3,27.2,00.0,37.3,30.2,18.4,0000.0,0000.47,0000.99,0000.22
2022-05-30 08:33:00,,0811.9,5.01,0.00,28.4,27.2,00.0,37.3,30.2,18.5,0000.0,0000.47,0001.00,0000.22
2022-05-30 08:34:00,,0811.9,4.99,0.00,28.4,27.2,00.0,37.3,30.2,18.0,0000.0,0000.47,0001.01,0000.21
2022-05-30 08:35:00,,0811.9,5.00,0.00,28.4,27.3,00.0,37.3,30.2,17.9,0000.0,0000.47,0001.02,0000.21
2022-05-30 08:36:00,,0811.9,5.00,0.00,28.4,27.3,00.0,37.3,30.2,17.6,0000.0,0000.47,0001.02,0000.20
2022-05-30 08:37:00,,0811.9,5.00,0.00,28.4,27.3,00.0,37.3,30.2,17.5,0000.0,0000.49,0001.40,0000.20
2022-05-30 08:38:00,,0812.1,5.00,0.00,28.4,27.3,00.0,37.3,30.3,17.6,0000.0,0000.53,0001.76,0000.21
2022-05-30 08:39:00,,0812.1,5.00,0.00,28.4,27.3,00.0,37.3,30.3,17.8,0000.0,0000.48,0001.60,0000.20
2022-05-30 08:40:00,,0812.1,4.99,0.00,28.4,27.3,00.0,37.3,30.2,17.6,0000.0,0000.49,0001.64,0000.20
2022-05-30 08:41:00,,0812.1,5.00,0.00,28.4,27.3,00.0,37.3,30.2,18.3,0000.0,0000.48,0001.62,0000.19
2022-05-30 08:42:00,,0812.0,5.00,0.00,28.4,27.3,00.0,37.3,30.2,18.7,0000.0,0000.49,0001.68,0000.20
2022-05-30 08:43:00,,0812.0,5.00,0.00,28.4,27.3,00.0,37.3,30.2,18.8,0000.0,0000.51,0001.79,0000.20
2022-05-30 08:44:00,,0812.1,5.00,0.00,28.4,27.3,00.0,37.3,30.2,18.9,0000.0,0000.55,0001.95,0000.20
2022-05-30 08:45:00,,0812.0,4.99,0.00,28.4,27.3,00.0,37.3,30.2,18.7,0000.0,0000.51,0001.88,0000.19
2022-05-30 08:46:00,,0812.1,4.99,0.00,28.4,27.3,00.0,37.3,30.3,18.6,0000.0,0000.52,0001.86,0000.21
2022-05-30 08:47:00,,0812.1,5.00,0.00,28.4,27.3,00.0,37.3,30.3,18.5,0000.0,0000.55,0001.95,0000.22
2022-05-30 08:48:00,,0812.1,5.00,0.00,28.4,27.3,00.0,37.3,30.2,18.3,0000.0,0000.69,0002.19,0000.26
2022-05-30 08:49:00,,0812.0,5.00,0.00,28.4,27.3,00.0,37.3,30.2,18.7,0000.0,0000.88,0003.11,0000.30
2022-05-30 08:50:00,,0812.1,5.01,0.00,28.4,27.3,00.0,37.3,30.2,19.4,0000.0,0001.12,0003.71,0000.35
2022-05-30 08:51:00,,0812.1,5.00,0.00,28.4,27.2,00.0,37.3,30.2,19.6,0000.0,0001.28,0004.12,0000.40
2022-05-30 08:52:00,,0812.1,5.00,0.00,28.4,27.2,00.0,37.3,30.3,19.0,0000.0,0001.42,0004.52,0000.45
2022-05-30 08:53:00,,0812.1,5.00,0.00,28.4,27.2,00.0,37.3,30.2,17.9,0000.0,0001.56,0005.46,0000.50
2022-05-30 08:54:00,,0812.1,5.00,0.00,28.4,27.2,00.0,37.3,30.2,17.6,0000.0,0001.63,0005.51,0000.54
2022-05-30 08:55:00,,0812.1,5.00,0.00,28.4,27.2,00.0,37.3,30.2,17.5,0000.0,0001.67,0005.61,0000.56
2022-05-30 08:56:00,,0812.0,5.01,0.00,28.4,27.2,00.0,37.3,30.2,17.5,0000.0,0001.77,0007.19,0000.59
2022-05-30 08:57:00,,0812.0,4.99,0.00,28.4,27.2,00.0,37.3,30.2,17.8,0000.0,0001.83,0007.51,0000.60
2022-05-30 08:58:00,,0812.1,5.00,0.00,28.4,27.2,00.0,37.3,30.2,17.6,0000.0,0001.86,0007.56,0000.60
2022-05-30 08:59:00,,0812.1,5.00,0.00,28.4,27.2,00.0,37.3,30.2,17.4,0000.0,0001.78,0007.37,0000.59
